Location: Newark
(52.3735°N, 16.9806°E)
Time: 21:09:31
(UTC+00:00)

ISS - Pass Details

Date: 30 September 2021
Orbit: 417 x 423 km, 51.6° (Epoch: 19 October)

Event Time Altitude Azimuth Distance (km) Brightness Sun altitude
Rises 19:03:24 0° 281° (W) 2,367 1.3 -23.3°
Reaches altitude 10° 19:05:50 10° 264° (W) 1,501 -0.2 -23.7°
Enters shadow 19:07:38 19° 234° (SW) 1,073 -1.5 -23.9°
